Probability
20 21 22 23 23 23 22 20 19 16 16 18 18 17 13 10 10 8 7 8 9 10 10 10 10 11 11 10 9 9 10 10 9 6 7 10 11 6 3 2 2 2 2
22 22 23 23 23 23 22 20 19 17 15 16 17 14 10 8 8 7 6 7 8 9 9 9 9 8 8 8 8 8 8 8 8 7 9 11 11 7 4 3 2 1 1
21 21 23 24 23 21 20 19 18 16 15 16 16 13 10 7 6 6 6 6 7 8 8 8 7 6 7 7 6 6 6 7 7 8 10 12 11 9 6 4 2 2 2
16 17 19 22 22 20 18 17 16 16 16 17 17 15 12 9 7 6 6 6 6 7 7 6 6 6 6 6 6 4 4 5 6 7 9 12 12 10 7 5 5 5 4
11 12 14 17 19 19 17 15 15 15 16 16 16 15 13 9 6 6 6 7 7 7 6 5 4 4 4 4 4 3 3 4 4 5 8 10 11 10 7 6 6 5 4
10 10 11 12 14 15 14 14 13 13 13 13 13 12 11 9 6 4 6 8 9 8 7 4 3 3 3 2 2 2 2 2 3 4 7 8 8 9 8 7 7 6 4
10 10 10 10 10 11 12 12 12 12 11 11 10 10 10 8 5 3 5 8 9 9 7 4 3 3 3 2 2 2 2 1 2 3 4 4 5 8 9 8 8 8 7
10 10 9 9 9 9 10 11 11 12 11 10 10 10 10 8 5 3 4 7 9 9 7 4 3 3 3 3 2 2 2 1 1 1 2 1 2 5 7 8 9 10 10
11 10 9 9 9 9 8 10 11 12 12 11 9 9 9 8 4 2 3 6 7 7 5 4 3 3 2 2 3 4 3 2 1 0 0 0 0 2 4 6 8 9 10
12 11 9 9 10 9 10 11 12 11 11 10 8 8 8 7 3 1 2 4 5 5 4 3 3 2 1 1 3 5 5 3 3 2 1 1 1 1 3 6 8 8 7
11 11 8 7 8 9 10 12 11 10 9 8 7 8 8 7 4 1 1 3 4 4 3 3 2 1 0 0 2 5 4 3 4 3 2 2 3 3 4 6 8 8 7
10 9 7 6 6 6 8 9 10 10 9 7 6 7 8 7 4 1 1 2 3 3 3 2 1 0 0 0 1 1 1 2 3 4 3 3 4 5 6 6 7 7 7
7 6 5 4 5 5 6 7 9 10 8 5 4 5 6 6 4 1 0 1 2 2 1 1 0 0 0 0 0 0 0 1 2 2 2 2 4 6 5 4 4 5 5
4 4 5 4 5 5 5 5 7 8 6 4 3 4 4 4 3 1 0 0 1 1 0 0 0 0 0 0 0 0 0 0 1 1 1 1 4 5 4 2 2 2 2
4 4 4 5 5 5 4 4 4 4 3 2 2 2 2 2 1 0 0 0 0 0 0 0 0 0 0 0 0 0 0 0 0 0 0 0 2 3 3 1 0 1 1
6 5 5 5 5 5 5 4 2 2 1 0 1 1 1 0 0 0 0 0 0 0 0 0 0 0 0 0 0 0 0 0 0 0 0 0 0 1 1 0 0 0 1
6 6 6 5 4 4 4 4 3 2 1 0 0 0 0 0 0 0 0 0 0 0 0 0 0 0 0 0 0 0 0 0 0 0 0 0 0 0 0 0 0 0 1
6 6 6 6 4 3 4 4 3 2 2 1 0 0 0 0 0 0 0 0 0 0 0 0 0 0 0 0 0 0 0 0 0 0 0 0 0 0 0 0 0 0 0
6 6 6 6 4 3 3 3 3 3 3 2 1 1 1 0 0 0 0 0 1 1 1 1 1 1 0 0 0 0 0 0 0 0 0 0 0 0 0 0 0 0 0
6 6 5 5 4 3 3 3 3 4 4 3 2 2 2 1 0 0 0 0 1 2 2 2 2 1 0 0 0 0 0 0 0 0 0 0 0 0 0 0 0 0 0
6 5 4 4 3 3 3 3 3 4 4 3 2 2 3 2 1 0 0 0 0 1 1 1 1 1 0 0 0 0 0 0 0 0 0 0 0 0 0 0 0 0 0
6 5 5 4 3 3 3 3 3 3 3 3 3 2 2 2 1 0 0 0 0 0 0 0 0 0 0 0 0 0 0 0 0 0 0 0 0 0 0 0 0 0 0
5 5 5 4 3 3 3 3 3 3 2 2 2 2 1 1 1 0 0 0 0 0 0 0 0 0 0 0 0 0 0 0 0 0 0 0 0 0 0 0 0 0 0
3 3 2 2 2 2 2 2 2 1 1 1 1 1 0 0 0 0 0 0 0 0 0 0 0 0 0 0 0 0 0 0 0 0 0 0 0 0 0 0 0 0 0
2 1 0 0 1 1 1 1 1 0 0 0 0 0 0 1 1 0 0 0 0 0 0 0 0 0 0 0 0 0 0 0 0 0 0 0 0 0 0 0 0 0 0
2 1 0 0 0 0 0 0 0 0 0 0 0 0 1 2 2 1 0 0 0 0 0 0 0 0 0 0 0 0 0 0 0 0 0 0 0 0 0 0 0 0 0
Wind_Speed
5 5 5 4 4 4 3 3 3 3 3 3 3 3 3 4 4 4 4 4 5 5 4 4 5 4 3 4 4 4 4 4 5 4 3 2 4 5 3 4 5 6 6
4 4 4 4 4 4 4 3 3 3 4 3 3 3 4 4 4 4 5 4 5 5 5 5 5 4 4 4 3 4 4 4 5 6 4 3 4 4 4 4 4 4 5
4 4 4 4 4 4 4 3 3 3 3 3 3 3 3 3 3 4 4 5 5 5 5 5 5 5 5 4 4 4 4 4 5 5 5 3 4 4 4 4 5 4 5
4 4 4 3 3 3 3 3 3 3 4 4 3 3 3 3 3 4 4 4 4 5 5 5 5 5 5 5 4 5 4 5 5 5 5 4 4 4 4 4 4 4 5
3 3 3 3 3 3 3 3 3 3 3 4 3 3 3 3 2 3 3 4 4 4 4 4 4 3 3 4 4 4 4 5 4 4 5 4 4 4 5 5 5 4 5
4 3 3 3 3 3 3 3 3 2 3 3 3 3 3 1 2 1 3 3 4 4 3 3 3 4 3 4 3 4 5 6 5 5 5 5 5 5 4 5 5 5 4
4 3 3 3 3 2 2 2 2 2 2 2 3 2 2 2 3 1 2 3 3 3 3 3 3 2 4 4 4 6 6 6 6 6 6 6 5 4 5 6 5 5 5
4 3 3 3 2 2 2 2 2 2 2 2 3 2 2 3 3 2 2 4 3 3 3 3 3 3 3 3 5 5 5 5 6 6 6 6 5 4 5 6 5 6 6
4 3 2 2 2 2 3 3 2 2 2 3 3 3 3 3 4 3 3 4 3 3 3 3 3 3 2 4 5 5 5 5 4 4 4 5 4 4 5 5 5 6 5
3 2 2 2 2 3 3 3 2 2 2 2 2 2 2 2 4 3 4 3 3 3 3 3 3 3 2 4 6 5 5 5 4 4 5 6 7 7 7 8 6 6 5
1 1 1 2 2 3 2 3 3 2 2 2 2 2 2 2 4 4 3 3 3 3 2 2 2 4 3 5 6 5 5 5 5 5 5 6 6 5 6 7 6 6 6
1 1 1 1 1 1 2 2 2 2 3 3 3 2 2 2 2 3 4 4 4 3 3 2 0 3 4 5 5 4 4 5 5 5 5 5 5 5 4 5 5 6 6
1 1 1 1 0 1 2 2 2 2 2 2 2 2 1 1 3 4 4 4 4 4 2 1 1 3 5 5 6 6 6 5 4 5 5 4 4 3 3 4 5 6 7
1 1 1 1 1 0 1 1 1 1 1 2 2 1 1 1 0 1 2 3 4 4 2 2 4 5 5 3 4 5 5 4 4 5 4 4 4 4 4 4 4 5 5
1 0 0 0 1 1 0 1 1 1 1 2 2 2 1 1 1 1 2 2 2 1 2 3 3 3 3 3 3 3 3 4 5 4 4 4 4 4 4 4 4 5 6
1 1 0 0 0 1 1 1 2 1 2 1 1 2 1 1 2 0 2 3 3 2 4 4 3 3 3 3 3 3 3 4 4 4 4 5 5 5 5 5 5 6 6
1 0 1 1 1 1 1 1 1 2 3 3 3 2 1 1 0 1 2 2 3 4 5 4 3 3 4 4 4 4 4 3 4 4 5 5 5 5 5 5 5 6 7
0 0 1 1 1 1 1 1 1 1 1 2 4 5 4 3 3 2 2 2 2 4 4 4 3 3 4 4 4 4 4 4 4 4 5 5 5 6 6 6 6 6 7
1 1 1 1 1 1 1 2 2 1 1 1 1 2 4 4 5 5 4 3 3 3 3 4 4 4 4 4 4 4 5 4 4 5 5 5 5 6 6 6 6 6 7
1 0 2 2 2 2 2 2 2 2 1 1 1 1 1 1 1 2 3 3 3 4 4 4 4 4 4 4 4 4 4 4 4 5 5 5 5 5 6 6 6 6 6
2 2 3 4 2 2 2 2 2 2 2 2 1 1 0 3 2 2 2 3 3 4 4 4 4 4 4 4 4 4 4 4 4 4 4 4 5 5 5 5 6 6 6
2 2 2 2 2 2 2 2 2 3 3 3 2 2 5 4 3 3 3 3 3 3 3 4 4 3 3 4 4 4 4 5 4 4 4 4 5 5 6 6 5 5 6
3 3 2 2 3 2 3 3 3 3 3 3 2 2 2 2 3 3 3 3 3 3 3 3 4 4 3 3 3 4 5 5 4 5 6 6 5 5 6 6 7 7 7
3 3 3 3 3 3 3 3 3 3 3 2 3 3 3 3 3 3 3 3 3 3 3 3 4 5 5 4 3 4 4 4 5 5 7 7 7 7 6 7 7 8 8
3 2 3 3 3 3 3 3 4 3 3 3 3 3 3 3 3 3 3 3 4 3 4 4 3 3 5 5 5 4 2 3 4 6 6 7 8 8 8 8 7 8 8
3 3 2 3 3 3 3 4 4 4 3 3 3 3 4 4 4 3 3 3 3 3 4 4 4 4 5 4 4 3 2 2 3 5 7 6 7 7 8 7 9 8 9
Wind_Direction
185 188 189 191 197 203 206 207 210 214 210 215 210 210 215 217 220 226 232 224 227 227 227 225 231 242 237 232 231 236 239 243 252 253 237 209 212 237 219 236 236 230 212
179 182 188 192 195 202 202 202 200 208 216 216 214 214 219 220 219 222 225 222 225 225 225 227 229 225 229 239 238 238 238 240 248 254 248 224 218 225 226 238 248 245 243
182 182 183 195 197 204 206 201 203 205 214 216 216 216 217 215 217 223 229 228 229 230 230 231 230 227 228 231 239 238 236 233 241 247 246 235 223 219 224 237 247 259 258
190 189 187 197 203 210 206 199 206 209 210 210 212 209 211 208 211 218 226 231 233 232 231 232 232 229 230 232 235 236 237 237 233 242 242 232 225 214 228 236 239 238 253
193 199 200 205 208 212 206 203 206 209 206 200 200 196 203 207 214 233 234 232 234 233 231 234 237 237 249 245 249 244 241 239 235 237 240 238 231 222 230 236 242 241 240
196 206 205 212 215 214 205 194 190 196 195 189 192 192 202 202 103 296 269 241 237 230 224 223 219 208 205 219 250 264 263 254 250 248 245 246 246 241 242 245 246 247 244
201 208 210 212 212 216 211 194 189 190 192 194 194 188 194 131 128 176 266 250 232 229 227 225 234 215 220 228 220 229 245 253 258 260 257 258 256 251 252 249 248 256 264
209 213 208 203 203 203 199 197 207 207 200 196 195 196 193 141 144 181 249 237 228 222 223 222 232 237 232 238 238 239 244 242 240 245 257 264 267 269 257 257 261 255 254
217 215 206 200 196 199 201 198 203 210 210 207 196 199 198 162 151 182 239 234 219 221 224 220 222 228 200 243 245 242 246 249 235 236 264 275 290 274 266 257 251 252 258
223 208 210 209 205 207 202 200 206 215 213 222 197 195 198 188 154 182 231 239 222 221 211 210 201 223 213 234 245 245 247 254 257 234 234 239 241 233 226 239 249 252 258
212 191 195 203 208 199 192 194 198 206 203 213 199 194 199 197 167 178 224 249 247 243 233 227 184 160 211 238 249 253 257 269 259 251 246 244 237 232 229 228 239 252 259
153 159 162 204 236 182 196 195 197 200 201 207 206 211 198 184 182 183 211 248 280 256 256 262 162 160 221 243 241 240 248 254 251 253 254 253 251 247 243 244 244 252 261
106 115 142 153 222 236 219 204 207 213 231 234 229 225 204 172 159 173 206 230 244 254 274 357 275 223 226 225 213 222 233 240 243 249 252 254 259 263 260 250 238 242 249
106 135 168 164 187 187 269 255 248 240 245 249 252 253 250 203 167 177 217 208 205 222 240 210 204 217 230 243 218 217 235 252 262 260 261 260 258 252 248 252 254 246 249
141 147 220 189 156 172 196 344 294 339 342 290 285 268 259 258 59 352 279 276 288 302 286 245 238 230 235 239 244 243 243 244 250 255 261 256 251 252 254 250 253 256 254
154 178 207 258 119 211 187 129 82 116 108 159 275 302 320 69 83 223 289 303 300 273 256 243 243 245 250 255 254 249 245 249 254 255 257 260 258 254 253 250 247 249 256
26 349 292 270 228 258 277 232 188 164 177 186 195 206 257 323 334 276 291 291 256 234 242 249 256 260 262 265 266 268 266 259 257 257 260 263 262 259 255 251 249 250 255
261 144 255 274 276 269 282 274 266 260 203 191 187 183 192 207 217 232 238 242 224 216 251 265 264 267 273 278 280 281 277 274 266 265 263 263 265 263 260 257 253 255 261
278 279 288 290 282 268 270 271 268 267 276 304 328 154 183 200 197 202 204 237 255 250 255 266 274 276 278 280 281 281 281 277 276 272 267 266 266 266 265 262 261 259 263
232 299 281 277 267 260 266 288 292 288 284 295 292 339 34 289 260 201 212 250 264 270 272 271 272 277 278 277 279 279 280 284 285 280 280 277 274 272 272 272 272 268 264
252 208 211 246 261 274 277 287 290 287 290 287 283 96 187 276 274 271 262 258 267 273 277 279 277 277 278 278 280 284 285 284 283 284 285 286 286 283 280 275 273 273 274
280 277 266 271 279 278 280 277 283 284 285 284 287 176 185 244 269 273 271 271 272 276 277 279 281 283 287 288 290 287 283 283 284 283 284 285 286 286 284 281 279 280 277
273 277 277 277 277 264 258 264 268 272 279 285 290 295 259 276 286 282 280 282 282 279 277 274 277 284 291 291 288 285 285 288 288 289 286 280 276 274 276 278 278 278 276
281 283 289 291 291 287 280 282 284 282 281 285 288 289 286 285 286 287 288 288 282 275 276 277 276 285 291 289 281 277 288 303 294 278 274 276 276 273 272 275 275 275 275
282 290 298 301 298 293 292 293 298 299 294 289 287 287 286 287 290 292 291 287 285 285 287 286 286 285 289 291 295 304 347 329 300 296 279 272 273 275 277 275 275 277 277
284 285 284 289 289 289 290 291 298 299 293 290 291 293 291 288 290 292 288 287 287 286 285 284 291 298 301 296 317 339 333 297 294 297 288 279 278 279 283 281 281 280 281